Weather in Chepstow

United Kingdom     51°39′03″N   2°39′39″W
temp.,
°C
wind,
m/s
gust,
m/s
humid.,
%
clouds,
%
prec.,
mm/h
press.,
hPa
HPBL,
m
22 april, thu
thu2201:00+2ene35848 0.0 1026110
04:000nne33953 0.0 102736
07:00−1nne34935 0.0 102886
10:00+6ene46625 0.0 1028637
13:00+11e56515 0.0 10271000
16:00+12e45525 0.0 10271227
19:00+10e47710 0.0 1027269
22:00+4e22870 0.0 102912
23 april, fri
fri2301:00+2e11820 0.0 102910
04:000ne22840 0.0 102911
07:00+1nne22810 0.0 102946
10:00+8e47620 0.0 1029595
13:00+13ese67530 0.0 10281049
16:00+14ese575428 0.0 10271235
19:00+11e487241 0.0 1027284
22:00+4e347581 0.0 102856
24 april, sat
sat2401:00+1ne2275100 0.0 102813
04:000n3379100 0.0 102837
07:00+1nne3474100 0.0 102893
10:00+9ene4769100 0.0 1027549
13:00+12e7859100 0.0 10261009
16:00+13e7859100 0.0 10261267
19:00+10e61072100 0.0 1026698
22:00+5ene31086100 0.0 1028217
25 april, sun
sun2501:00+4nne3691100 0.0 1027123
04:00+2nne3395100 0.0 102756
07:00+3nne3989100 0.0 1026296
10:00+8ne5970100 0.0 1026583
13:00+11e6862100 0.0 1024952
16:00+12ene6761100 0.0 10221035
19:00+10ene4873100 0.0 1021432
22:00+7ne3880100 0.0 1022227
26 april, mon
mon2601:00+5nne228078 0.0 102037
04:00+2n459363 0.0 101984
07:00+2n358684 0.0 1018116
10:00+8nne346497 0.0 1017437
13:00+12nne33550 0.0 1014920
16:00+14n24505 0.0 10111506
19:00+10nw6108015 0.6 1010548
22:00+7n259549 0.4 1011302